FW5423 Weather Reports


Display with metric or nautical units.
time (UTC)temp
F
wind
direction
speed
MPH
gust
MPH
rain 1hr
in
rain 24hr
in
rain mn
in
humidity
%
barometer
mb
20260510140533 41 359 15.0 20.0 0.00 1.43 0.00 98 1020.3
20260510140033 41 270 14.0 20.0 0.00 1.54 0.00 98 1020.1
20260510135532 41 359 14.0 19.0 0.00 1.54 0.00 98 1020.2
20260510135031 41 359 12.0 19.0 0.00 1.54 0.00 98 1020.0
20260510134530 40 359 14.0 20.0 0.00 1.54 0.00 98 1020.1
20260510134028 40 359 14.0 20.0 0.00 1.54 0.00 98 1020.3
20260510133528 40 359 15.0 20.0 0.00 1.54 0.00 98 1020.2
20260510133028 40 359 12.0 20.0 0.00 1.54 0.00 98 1020.4
20260510132528 40 359 14.0 22.0 0.00 1.54 0.00 98 1020.6
20260510132027 40 359 15.0 22.0 0.00 1.54 0.00 98 1020.7
20260510131025 40 359 14.0 20.0 0.00 1.54 0.00 98 1020.8
20260510130524 40 359 11.0 20.0 0.00 1.54 0.00 98 1020.7
20260510130029 40 359 14.0 17.0 0.00 1.58 0.00 98 1020.4
20260510125521 40 359 13.0 18.0 0.00 1.58 0.00 98 1020.1
20260510125021 40 359 13.0 18.0 0.00 1.58 0.00 98 1020.1
20260510124522 40 269 13.0 18.0 0.00 1.58 0.00 98 1020.1
20260510124020 40 261 12.0 18.0 0.00 1.58 0.00 98 1020.3
20260510123521 39 359 10.0 17.0 0.00 1.58 0.00 98 1020.1
20260510123019 39 255 12.0 17.0 0.00 1.58 0.00 98 1020.3
20260510122517 39 359 11.0 18.0 0.00 1.58 0.00 98 1020.1
20260510122016 39 249 11.0 18.0 0.00 1.58 0.00 98 1020.2
20260510121016 39 359 11.0 17.0 0.00 1.58 0.00 98 1020.5
20260510120515 39 359 11.0 17.0 0.00 1.58 0.00 98 1020.5
20260510120015 39 359 10.0 18.0 0.00 1.62 0.40 98 1020.6
20260510115513 39 359 10.0 19.0 0.00 1.62 0.40 98 1020.4
20260510115012 39 250 10.0 21.0 0.00 1.62 0.40 98 1020.4
20260510114513 39 359 13.0 21.0 0.00 1.62 0.40 98 1020.2
20260510114010 39 359 8.0 16.0 0.00 1.62 0.40 98 1020.1
20260510113508 39 246 9.0 15.0 0.00 1.62 0.40 98 1020.1
20260510113013 39 234 8.0 15.0 0.00 1.62 0.40 98 1019.7
20260510112510 39 258 8.0 20.0 0.00 1.62 0.40 98 1019.8
20260510112006 39 359 10.0 20.0 0.00 1.62 0.40 98 1019.8
20260510111004 39 359 9.0 16.0 0.00 1.62 0.40 98 1019.9
20260510110507 38 254 9.0 16.0 0.00 1.62 0.40 98 1019.6
20260510110007 38 359 8.0 16.0 0.00 1.64 0.40 98 1019.6
20260510105503 38 359 9.0 18.0 0.00 1.64 0.40 98 1019.8
20260510105003 38 247 10.0 18.0 0.00 1.64 0.40 98 1019.8
20260510104501 38 223 9.0 22.0 0.00 1.64 0.40 98 1019.5
20260510104103 39 359 12.0 22.0 0.00 1.64 0.40 98 1019.4
20260510103559 39 245 14.0 21.0 0.00 1.64 0.40 98 1019.4
20260510103058 39 231 11.0 19.0 0.00 1.64 0.40 98 1019.4
20260510102557 39 239 10.0 19.0 0.00 1.64 0.40 98 1019.4
20260510102055 39 359 9.0 16.0 0.00 1.64 0.40 98 1019.6
20260510101057 39 254 8.0 24.0 0.00 1.64 0.40 98 1019.1
20260510100558 39 246 15.0 23.0 0.00 1.64 0.40 98 1018.8
20260510100058 39 255 13.0 23.0 0.00 1.64 0.40 98 1019.1
20260510095553 40 204 14.0 22.0 0.00 1.64 0.40 98 1019.2
20260510095055 40 211 9.0 19.0 0.00 1.64 0.40 98 1018.9
20260510094551 40 359 9.0 16.0 0.00 1.64 0.40 98 1018.9
20260510094053 40 359 8.0 15.0 0.00 1.64 0.40 98 1018.7
20260510093549 40 359 7.0 14.0 0.00 1.64 0.40 98 1018.6
20260510093049 40 233 7.0 14.0 0.00 1.64 0.40 98 1018.5
20260510092548 40 359 7.0 13.0 0.00 1.64 0.40 98 1018.6
20260510092052 40 235 8.0 13.0 0.00 1.64 0.40 98 1018.3
20260510091045 40 359 5.0 12.0 0.00 1.64 0.40 98 1018.2
20260510090545 40 359 5.0 13.0 0.00 1.64 0.40 98 1018.1
20260510090059 40 359 6.0 16.0 0.00 1.64 0.40 98 1017.9
20260510085544 40 246 7.0 19.0 0.00 1.64 0.40 98 1017.7
20260510085044 40 253 9.0 19.0 0.00 1.64 0.40 98 1017.8
20260510084554 40 217 8.0 17.0 0.00 1.64 0.40 98 1017.6
20260510084045 40 255 9.0 17.0 0.00 1.64 0.40 98 1017.7
20260510083545 40 359 7.0 14.0 0.01 1.64 0.40 98 1017.7
20260510083044 40 359 6.0 15.0 0.01 1.64 0.40 98 1017.7
20260510082543 40 220 7.0 15.0 0.01 1.64 0.40 98 1017.6
20260510082044 40 6.0 12.0 0.01 1.64 0.40 98 1017.7
20260510081044 40 359 7.0 16.0 0.01 1.64 0.40 98 1017.5
20260510080544 40 7.0 16.0 0.01 1.64 0.40 98 1017.6
20260510080043 40 359 6.0 19.0 0.01 1.64 0.40 98 1017.5
20260510075543 40 359 9.0 21.0 0.01 1.64 0.40 98 1017.2
20260510075043 41 359 8.0 21.0 0.01 1.64 0.40 98 1017.3
20260510074543 41 222 11.0 20.0 0.01 1.64 0.40 98 1017.4
20260510074047 41 251 11.0 20.0 0.01 1.64 0.40 98 1017.3
20260510073542 41 359 13.0 20.0 0.01 1.64 0.40 98 1017.4
20260510073043 41 359 13.0 22.0 0.00 1.63 0.39 98 1017.6
20260510072542 41 255 12.0 23.0 0.00 1.63 0.39 98 1017.4
20260510072043 41 246 14.0 23.0 0.00 1.63 0.39 98 1017.5
20260510071041 41 359 12.0 20.0 0.00 1.63 0.39 98 1017.4
20260510070540 41 233 14.0 23.0 0.00 1.63 0.39 98 1017.4
20260510070045 41 287 14.0 23.0 0.00 1.63 0.39 98 1017.4
20260510065540 41 359 13.0 21.0 0.00 1.63 0.39 98 1017.4
20260510065039 41 235 13.0 20.0 0.00 1.63 0.39 98 1017.2
20260510064557 41 254 12.0 20.0 0.00 1.63 0.39 98 1017.1
20260510064038 41 359 11.0 21.0 0.00 1.63 0.39 98 1017.2
20260510063538 41 347 13.0 21.0 0.00 1.63 0.39 98 1017.1
20260510063045 41 10 13.0 21.0 0.00 1.63 0.39 98 1017.3
20260510062538 41 359 13.0 20.0 0.00 1.63 0.39 98 1017.4
20260510062039 41 359 12.0 22.0 0.00 1.63 0.39 98 1017.4
20260510061039 41 259 13.0 21.0 0.00 1.63 0.39 98 1017.1
20260510060542 41 242 13.0 22.0 0.00 1.63 0.39 98 1017.3
20260510060041 41 359 14.0 22.0 0.00 1.63 0.39 98 1017.4
20260510055538 41 245 14.0 22.0 0.00 1.63 0.39 97 1017.4
20260510055039 41 359 12.0 21.0 0.00 1.63 0.39 97 1017.1
20260510054538 41 359 12.0 21.0 0.01 1.63 0.39 97 1017.6
20260510054037 41 226 13.0 21.0 0.02 1.63 0.39 97 1017.6
20260510053537 41 13.0 20.0 0.02 1.63 0.39 97 1018.0
20260510053038 41 220 11.0 19.0 0.02 1.63 0.39 96 1017.7
20260510052538 41 359 11.0 22.0 0.02 1.63 0.39 95 1017.6
20260510052040 42 359 15.0 22.0 0.02 1.63 0.39 95 1017.4
20260510051036 41 244 12.0 21.0 0.02 1.63 0.39 96 1017.5
20260510050536 41 224 13.0 21.0 0.02 1.63 0.39 95 1017.5
20260510050038 42 234 14.0 18.0 0.02 1.65 0.39 94 1017.4
20260510045536 42 359 12.0 18.0 0.03 1.65 0.39 93 1017.6
20260510045036 42 359 12.0 18.0 0.04 1.65 0.39 90 1017.4
20260510044537 42 359 11.0 18.0 0.05 1.65 0.39 90 1017.4
20260510044036 42 359 10.0 17.0 0.03 1.64 0.38 89 1017.1
20260510043537 43 225 10.0 19.0 0.04 1.64 0.38 87 1017.8
20260510043035 43 218 11.0 19.0 0.04 1.64 0.38 86 1017.7
20260510042536 42 216 9.0 16.0 0.04 1.63 0.37 87 1017.3
20260510042033 42 359 12.0 16.0 0.05 1.63 0.37 89 1017.6
20260510041041 42 218 11.0 16.0 0.06 1.63 0.37 90 1017.6
20260510040536 42 359 9.0 15.0 0.06 1.63 0.37 89 1017.4
20260510040036 41 359 9.0 16.0 0.06 1.67 0.37 91 1017.3
20260510035535 41 188 10.0 19.0 0.06 1.67 0.37 91 1017.2
20260510035034 41 359 10.0 17.0 0.06 1.66 0.36 91 1017.3
20260510034534 41 224 12.0 17.0 0.06 1.65 0.35 93 1017.4
20260510034033 41 359 11.0 20.0 0.05 1.65 0.35 94 1017.2
20260510033532 41 216 13.0 20.0 0.04 1.64 0.34 95 1017.3
20260510033032 41 227 13.0 20.0 0.04 1.64 0.34 96 1017.3
20260510032531 41 218 13.0 20.0 0.03 1.63 0.33 97 1017.4
20260510032030 42 224 14.0 20.0 0.03 1.63 0.33 97 1017.3
20260510031028 43 359 10.0 17.0 0.02 1.61 0.31 98 1017.2
20260510030527 42 220 12.0 21.0 0.02 1.61 0.31 98 1017.3
20260510030026 41 189 12.0 21.0 0.02 1.69 0.31 98 1017.3
20260510025526 41 191 12.0 21.0 0.02 1.69 0.31 98 1017.4
20260510025025 41 359 14.0 24.0 0.03 1.69 0.31 98 1017.8
20260510024531 41 214 12.0 24.0 0.04 1.69 0.30 98 1017.8
20260510024025 41 262 11.0 18.0 0.06 1.69 0.30 98 1017.9
20260510023523 41 359 10.0 18.0 0.07 1.69 0.30 98 1017.8
20260510023024 41 232 10.0 16.0 0.09 1.69 0.30 98 1017.7
20260510022524 41 359 9.0 15.0 0.09 1.69 0.30 98 1017.8
20260510022022 41 217 9.0 15.0 0.13 1.69 0.30 98 1017.8
20260510021027 41 257 7.0 17.0 0.14 1.69 0.30 98 1017.8
20260510020524 41 248 9.0 20.0 0.13 1.68 0.28 98 1017.7
20260510020022 42 254 10.0 17.0 0.15 1.68 0.28 98 1017.7
20260510015525 42 247 10.0 17.0 0.15 1.67 0.28 98 1017.9
20260510015022 43 224 8.0 14.0 0.16 1.67 0.28 99 1017.9
20260510014527 44 359 5.0 10.0 0.15 1.66 0.28 99 1018.0
20260510014020 45 222 1.0 16.0 0.12 1.63 0.24 99 1017.6
20260510013524 44 186 9.0 23.0 0.11 1.62 0.24 98 1017.9
20260510013022 42 220 11.0 24.0 0.09 1.61 0.22 98 1017.7
20260510012520 41 180 12.0 24.0 0.09 1.60 0.21 98 1017.5
20260510012018 41 214 13.0 22.0 0.07 1.58 0.20 98 1017.5
20260510011019 41 359 11.0 19.0 0.03 1.54 0.16 98 1017.6
20260510010518 41 359 12.0 19.0 0.04 1.54 0.16 98 1017.5
20260510010019 41 193 12.0 19.0 0.03 1.54 0.15 98 1017.7
20260510005518 41 214 12.0 21.0 0.02 1.52 0.13 98 1018.0
20260510005016 41 184 11.0 24.0 0.01 1.51 0.13 98 1017.2
20260510004516 41 359 10.0 23.0 0.01 1.51 0.13 98 1017.1
20260510004020 41 359 12.0 24.0 0.02 1.51 0.13 98 1017.1
20260510003521 42 359 12.0 23.0 0.02 1.51 0.13 99 1016.9
20260510003016 42 181 11.0 21.0 0.02 1.51 0.13 99 1017.0
20260510002514 42 127 11.0 19.0 0.02 1.51 0.13 99 1017.0
20260510002014 41 182 10.0 17.0 0.02 1.51 0.13 99 1017.2
20260510001012 42 172 8.0 19.0 0.02 1.51 0.13 99 1017.2
20260510000512 42 183 11.0 20.0 0.02 1.51 0.13 99 1017.3
20260510000011 42 180 9.0 20.0 0.02 1.51 0.12 99 1017.4
20260509235511 42 359 10.0 16.0 0.02 1.51 0.12 98 1017.5
20260509235012 42 359 6.0 15.0 0.02 1.51 0.12 98 1017.0
20260509234518 42 359 6.0 17.0 0.02 1.51 0.12 98 1017.0
20260509234011 42 190 9.0 20.0 0.02 1.51 0.12 98 1017.0
20260509233509 42 179 11.0 20.0 0.02 1.50 0.11 98 1017.0
20260509233023 42 187 9.0 21.0 0.02 1.50 0.11 99 1016.9
20260509232508 42 162 8.0 23.0 0.02 1.50 0.11 99 1016.7
20260509232007 42 359 10.0 23.0 0.03 1.50 0.11 99 1016.5
20260509231006 42 359 7.0 22.0 0.04 1.50 0.11 99 1015.9
20260509230507 42 169 10.0 22.0 0.05 1.50 0.11 99 1016.0
20260509230007 41 189 7.0 22.0 0.05 1.50 0.10 98 1016.1
20260509225510 41 187 11.0 24.0 0.06 1.50 0.10 98 1016.0
20260509225005 41 238 9.0 24.0 0.06 1.50 0.10 98 1016.2
20260509224505 41 183 14.0 25.0 0.07 1.50 0.10 99 1016.3
20260509224004 42 359 13.0 25.0 0.08 1.50 0.10 99 1016.5
20260509223503 42 359 12.0 24.0 0.07 1.49 0.09 99 1016.5
20260509223001 42 206 14.0 24.0 0.08 1.49 0.09 98 1016.3
20260509222600 42 186 11.0 23.0 0.08 1.49 0.09 98 1016.1
20260509222059 42 201 11.0 23.0 0.09 1.48 0.09 98 1016.2
20260509221100 42 176 10.0 20.0 0.08 1.47 0.08 99 1016.1
20260509220602 42 193 12.0 20.0 0.07 1.46 0.07 98 1016.3
20260509220057 43 216 10.0 20.0 0.06 1.46 0.06 99 1016.2
20260509215556 43 189 10.0 16.0 0.05 1.44 0.05 99 1015.7
20260509215056 43 225 10.0 18.0 0.04 1.43 0.04 99 1015.6
20260509214555 43 359 9.0 18.0 0.03 1.43 0.03 99 1015.4
20260509214054 43 188 10.0 22.0 0.03 1.43 0.03 99 1015.0
20260509213553 43 245 11.0 22.0 0.02 1.42 0.02 99 1014.9
20260509213052 43 236 11.0 20.0 0.02 1.41 0.02 99 1014.8
20260509212550 43 260 9.0 17.0 0.02 1.41 0.02 98 1014.5
20260509212050 43 151 8.0 16.0 0.01 1.40 0.01 98 1014.4
20260509210031 44 214 8.0 16.0 0.08 1.46 1.24 98 1014.9
20260509205530 44 359 6.0 14.0 0.07 1.45 1.24 98 1014.6
20260509205031 44 226 8.0 17.0 0.08 1.45 1.24 98 1014.6
20260509204534 43 359 10.0 17.0 0.07 1.43 1.22 99 1014.7
20260509204032 44 216 8.0 20.0 0.06 1.42 1.20 98 1014.7
20260509203528 43 359 8.0 21.0 0.07 1.41 1.20 98 1014.4
20260509203035 43 189 9.0 16.0 0.06 1.39 1.18 98 1014.4
20260509202527 43 359 9.0 15.0 0.06 1.39 1.18 98 1014.4
20260509202028 44 161 8.0 13.0 0.07 1.39 1.18 98 1014.2
20260509201526 44 181 7.0 14.0 0.07 1.39 1.18 98 1013.7
20260509201025 44 175 8.0 17.0 0.08 1.39 1.18 98 1013.6
20260509200525 44 359 10.0 18.0 0.09 1.39 1.18 98 1013.9
20260509200024 44 235 10.0 18.0 0.09 1.39 1.17 98 1014.2
20260509195523 44 359 8.0 17.0 0.09 1.38 1.17 98 1014.1
20260509195026 44 359 10.0 20.0 0.09 1.37 1.15 98 1014.0
20260509194521 44 188 10.0 20.0 0.09 1.37 1.15 98 1014.2
20260509194020 44 359 11.0 19.0 0.10 1.36 1.14 98 1014.1
20260509193519 44 243 11.0 18.0 0.10 1.35 1.12 98 1014.2
20260509193019 45 195 8.0 22.0 0.13 1.33 1.12 98 1013.8
20260509192518 45 359 10.0 22.0 0.13 1.33 1.12 98 1013.7
20260509192018 46 359 9.0 16.0 0.15 1.33 1.12 98 1013.7
20260509191517 46 187 8.0 17.0 0.15 1.32 1.11 98 1013.6
20260509191018 46 359 8.0 19.0 0.15 1.35 1.10 98 1013.7
20260509190515 46 359 12.0 19.0 0.17 1.34 1.09 98 1014.0
20260509190018 46 218 11.0 22.0 0.17 1.33 1.09 98 1013.9
20260509185514 46 359 13.0 21.0 0.16 1.32 1.08 98 1013.9
20260509185013 46 181 10.0 19.0 0.15 1.31 1.07 98 1013.6
20260509184523 46 190 6.0 16.0 0.17 1.31 1.06 99 1013.2
20260509184011 46 234 7.0 20.0 0.18 1.30 1.06 98 1013.0
20260509183511 46 214 12.0 18.0 0.17 1.28 1.04 98 1013.3
20260509183011 47 222 5.0 12.0 0.17 1.24 1.00 99 1013.1
20260509182510 47 359 4.0 9.0 0.18 1.24 0.99 99 1013.0
20260509182010 48 166 1.0 3.0 0.20 1.22 0.98 99 1012.4
20260509181514 48 168 0.0 4.0 0.20 1.21 0.97 98 1012.2
20260509181011 48 189 0.0 7.0 0.20 1.29 0.95 98 1012.1
20260509180510 48 211 2.0 7.0 0.20 1.28 0.94 99 1012.4
20260509180016 48 197 3.0 5.0 0.20 1.26 0.92 99 1012.7
20260509175517 48 170 1.0 4.0 0.22 1.26 0.92 98 1012.4
20260509175010 49 170 1.0 4.0 0.25 1.26 0.92 99 1012.0
20260509174509 48 183 1.0 11.0 0.28 1.25 0.91 99 1012.2
20260509174010 48 174 6.0 11.0 0.28 1.23 0.89 98 1012.5
20260509173515 48 359 2.0 8.0 0.27 1.20 0.87 98 1013.0
20260509173014 48 177 3.0 10.0 0.30 1.17 0.83 98 1012.7
20260509172507 48 204 2.0 10.0 0.30 1.17 0.83 98 1012.7
20260509172007 49 233 5.0 9.0 0.28 1.12 0.80 99 1012.8
20260509171517 49 359 1.0 3.0 0.26 1.11 0.77 99 1012.7
20260509171011 49 191 1.0 6.0 0.26 1.17 0.76 99 1012.3
20260509170506 49 189 1.0 6.0 0.26 1.15 0.76 98 1012.5
20260509170007 49 359 1.0 6.0 0.24 1.12 0.73 98 1012.7
20260509165506 49 359 1.0 6.0 0.20 1.10 0.70 98 1012.7
20260509165006 49 226 4.0 6.0 0.19 1.09 0.69 99 1012.5
20260509164506 50 177 1.0 3.0 0.16 1.06 0.65 98 1012.6
20260509164009 50 177 0.0 6.0 0.13 1.02 0.61 98 1012.3
20260509163505 50 125 0.0 5.0 0.12 1.01 0.61 99 1012.3
20260509163006 48 125 1.0 3.0 0.06 0.94 0.54 98 1012.6
20260509162505 48 171 1.0 3.0 0.06 0.94 0.54 98 1012.7
20260509162005 48 167 1.0 3.0 0.06 0.92 0.52 99 1012.0
20260509161509 48 170 1.0 4.0 0.05 0.91 0.51 98 1011.9
20260509161009 48 169 3.0 4.0 0.06 0.91 0.51 98 1011.4
20260509160504 48 161 0.0 4.0 0.05 0.90 0.50 99 1011.7
20260509160004 48 159 2.0 5.0 0.06 0.90 0.50 98 1011.6
20260509155502 48 161 1.0 6.0 0.06 0.90 0.50 98 1011.7
20260509155002 47 153 2.0 6.0 0.06 0.90 0.50 98 1011.9
20260509154502 47 145 1.0 6.0 0.06 0.90 0.50 98 1011.9
20260509154006 47 147 1.0 6.0 0.07 0.90 0.50 98 1012.2
20260509153502 47 148 2.0 6.0 0.08 0.89 0.49 98 1012.1
20260509153006 46 165 2.0 7.0 0.09 0.88 0.48 98 1012.6
20260509152503 46 359 2.0 7.0 0.09 0.88 0.48 98 1012.6
20260509152004 46 359 1.0 5.0 0.10 0.87 0.47 98 1012.5
20260509151503 46 171 1.0 7.0 0.14 0.87 0.46 98 1012.6
20260509151001 46 220 2.0 7.0 0.14 0.86 0.46 98 1012.5
20260509150502 46 156 1.0 7.0 0.14 0.85 0.45 98 1012.3
20260509150001 46 143 2.0 5.0 0.15 0.85 0.45 98 1012.5
20260509145502 46 93 2.0 7.0 0.17 0.84 0.44 98 1012.3
20260509145101 46 147 2.0 7.0 0.19 0.84 0.44 98 1012.3
20260509144604 46 126 3.0 5.0 0.20 0.83 0.43 98 1012.5
20260509144059 46 116 2.0 7.0 0.20 0.83 0.43 98 1012.7
20260509143557 47 73 2.0 7.0 0.21 0.83 0.43 98 1012.8
20260509143105 48 89 2.0 7.0 0.21 0.80 0.40 98 1012.7
20260509142053 49 40 1.0 6.0 0.21 0.79 0.39 98 1013.1
20260509141555 49 33 1.0 6.0 0.21 0.76 0.36 98 1013.2
20260509141054 50 359 2.0 5.0 0.23 0.72 0.31 98 1013.4